West Palm Beach, FL

2:09 AM EDT on April 21, 2018 (GMT -0400)
Palm Beach International

Weather History for KPBI - October, 2014

Change the Weather History Date:

Friday, October 10, 2014

  Actual Average Record
Temperature  
Mean Temperature 84 °F 80 °F  
Max Temperature 88 °F 86 °F 95 °F (1941)
Min Temperature 80 °F 73 °F 57 °F (1903)
Degree Days  
Heating Degree Days 0 0  
Month to date heating degree days 0 0  
Since 1 July heating degree days 0 0  
Cooling Degree Days 19 14  
Month to date cooling degree days 161 151  
Year to date cooling degree days 3681 3359  
Growing Degree Days 34 (Base 50)    
Moisture  
Dew Point 71 °F    
Average Humidity 65    
Maximum Humidity 74    
Minimum Humidity 55    
Precipitation  
Precipitation T in 0.18 in 2.00 in (1892)
Month to date precipitation 1.42 1.96  
Year to date precipitation 53.70 51.03  
Snow  
Snow 0.00 in - - ()
Month to date snowfall 0.0  
Since 1 July snowfall 0.0  
Since 1 September snowfall 0.0  
Snow Depth 0.00 in    
Sea Level Pressure  
Sea Level Pressure 30.00 in    
Wind  
Wind Speed 12 mph (ENE)    
Max Wind Speed 20 mph    
Max Gust Speed 25 mph    
Visibility 10 miles    
Events      
T = Trace of Precipitation, MM = Missing Value Source: NWS Daily Summary

Daily Weather History Graph

Daily Weather History Graph

Search for Another Location

Airport or City:

Astronomy

Oct. 10, 2014 Rise Set
Actual Time 7:17 AM EDT 6:57 PM EDT
Civil Twilight 6:53 AM EDT 7:20 PM EDT
Nautical Twilight 6:27 AM EDT 7:47 PM EDT
Astronomical Twilight 6:00 AM EDT 8:14 PM EDT
Moon 8:49 PM EDT (10/10) 9:24 AM EDT (10/10)
Length of Visible Light 12h 26m
Length of Day
11h 39m
Waning Gibbous, 94% of the Moon is Illuminated
Oct 10
Waning Gibbous
Oct 15
Last Quarter
Oct 23
New
Oct 30
First Quarter
Nov 6
Full

Hourly Weather History & Observations

Time (EDT) Temp. Heat Index Dew Point Humidity Pressure Visibility Wind Dir Wind Speed Gust Speed Precip Events Conditions
12:53 AM 81.0 °F 84.9 °F 71.1 °F 72% 30.03 in 10.0 mi ENE 8.1 mph - N/A   Scattered Clouds
1:53 AM 81.0 °F 84.9 °F 71.1 °F 72% 30.01 in 10.0 mi East 11.5 mph - N/A   Scattered Clouds
2:53 AM 81.0 °F 84.4 °F 70.0 °F 69% 30.00 in 10.0 mi ENE 12.7 mph - 0.00 in   Mostly Cloudy
3:53 AM 81.0 °F 84.4 °F 70.0 °F 69% 29.99 in 10.0 mi ENE 11.5 mph - N/A   Scattered Clouds
4:53 AM 80.1 °F 83.2 °F 70.0 °F 71% 29.99 in 10.0 mi NE 6.9 mph - N/A   Scattered Clouds
5:53 AM 81.0 °F 84.9 °F 71.1 °F 72% 29.99 in 10.0 mi ENE 9.2 mph - N/A   Mostly Cloudy
6:53 AM 81.0 °F 84.9 °F 71.1 °F 72% 30.01 in 10.0 mi NE 11.5 mph - N/A   Scattered Clouds
7:53 AM 81.0 °F 84.4 °F 70.0 °F 69% 30.01 in 10.0 mi NE 12.7 mph - N/A   Scattered Clouds
8:53 AM 82.9 °F 87.5 °F 71.1 °F 67% 30.03 in 10.0 mi ENE 9.2 mph - N/A   Scattered Clouds
9:53 AM 84.0 °F 87.8 °F 69.1 °F 61% 30.04 in 10.0 mi ENE 12.7 mph - N/A   Scattered Clouds
10:53 AM 84.9 °F 90.1 °F 71.1 °F 63% 30.04 in 10.0 mi ENE 11.5 mph 21.9 mph N/A   Scattered Clouds
11:53 AM 84.9 °F 90.7 °F 72.0 °F 65% 30.03 in 10.0 mi ENE 13.8 mph 23.0 mph N/A   Mostly Cloudy
12:53 PM 87.1 °F 93.6 °F 72.0 °F 61% 30.02 in 10.0 mi ENE 16.1 mph 21.9 mph N/A   Mostly Cloudy
1:53 PM 86.0 °F 90.7 °F 70.0 °F 59% 30.00 in 10.0 mi ENE 13.8 mph 23.0 mph N/A   Scattered Clouds
2:53 PM 87.1 °F 92.0 °F 70.0 °F 57% 29.98 in 10.0 mi ENE 12.7 mph - N/A   Scattered Clouds
3:53 PM 86.0 °F 91.5 °F 71.1 °F 61% 29.97 in 10.0 mi NE 15.0 mph - N/A   Mostly Cloudy
4:53 PM 84.0 °F 88.4 °F 70.0 °F 63% 29.96 in 10.0 mi NE 17.3 mph - N/A   Mostly Cloudy
5:53 PM 84.0 °F 88.4 °F 70.0 °F 63% 29.96 in 10.0 mi NE 13.8 mph - N/A   Mostly Cloudy
6:53 PM 82.0 °F 85.9 °F 70.0 °F 67% 29.97 in 10.0 mi NE 10.4 mph - N/A   Scattered Clouds
7:53 PM 82.0 °F 86.3 °F 71.1 °F 69% 29.98 in 10.0 mi NE 12.7 mph - N/A   Scattered Clouds
8:53 PM 82.0 °F 86.3 °F 71.1 °F 69% 29.99 in 10.0 mi ENE 9.2 mph - N/A   Scattered Clouds
9:53 PM 82.0 °F 86.3 °F 71.1 °F 69% 30.01 in 10.0 mi ENE 12.7 mph - N/A   Scattered Clouds
10:53 PM 82.0 °F 85.5 °F 69.1 °F 65% 30.01 in 10.0 mi East 13.8 mph - N/A   Scattered Clouds
11:53 PM 82.0 °F 86.3 °F 71.1 °F 69% 30.01 in 10.0 mi ENE 10.4 mph - N/A   Scattered Clouds